Flag for U.S.A. Weather past 2 weeks in Kansas City, Missouri, U.S.A.

Now
75 °F

Clear.


Feels Like: 78 °F
Forecast: 71 / 95 °F
Wind: 9 mph from South

Location: Kansas City Downtown Airport

Current Time: Jul 25, 2014 at 1:54:42 AM

Latest Report: Jul 25, 2014 at 12:54 AM


Visibility: 10 mi

Pressure: 29.93 "Hg

Humidity: 55%

Dew point: 58 °F

Location of Kansas CityLocation

Historic Weather in Kansas City — Graph

°F

Kansas City temperature yesterday

Maximum temperature yesterday: 84 °F (at 3:54 PM)
Minimum temperature yesterday: 68 °F (at 4:54 AM)
Average temperature yesterday: 77 °F

Past Weeks' High & Low Weather Summary

 TemperatureHumidityPressure
High97 °F (Jul 22, 6:54 PM)93% (Jul 13, 6:54 AM)30.14 "Hg (Jul 13, 6:54 AM)
Low58 °F (Jul 15, 4:54 AM)40% (Jul 12, 4:54 PM)29.89 "Hg (Jul 20, 6:54 PM)
Average77 °F63%30.01 "Hg
* Reported Jul 9 11:54 PM — Jul 24 11:54 PM, Kansas City, Weather by CustomWeather, © 2014

Note: Actual official high and low records may vary slightly from our data, if they occured in-between our weather recording intervals... More about our weather records

Advertising

Kansas City weather history for previous 24 hours

 ConditionsComfort  
Time TempWeatherWind HumidityBarometerVisibility
11:54 PM
Jul 24
76 °FClear.7 mph54%29.93 "Hg10 mi
10:54 PM77 °FClear.6 mph54%29.96 "Hg10 mi
9:54 PM77 °FClear.7 mph54%30.00 "Hg10 mi
8:54 PM78 °FSunny.8 mph50%29.99 "Hg10 mi
7:54 PM81 °FSunny.8 mph45%29.98 "Hg10 mi
6:54 PM82 °FSunny.12 mph46%29.98 "Hg10 mi
5:54 PM83 °FSunny.12 mph44%29.99 "Hg10 mi
4:54 PM84 °FSunny.15 mph41%29.99 "Hg10 mi
3:54 PM84 °FSunny.12 mph43%30.01 "Hg10 mi
2:54 PM83 °FSunny.10 mph44%30.04 "Hg10 mi
1:54 PM82 °FSunny.8 mph44%30.09 "Hg10 mi
12:54 PM81 °FSunny.12 mph44%30.10 "Hg10 mi
11:54 AM80 °FSunny.14 mph45%30.11 "Hg10 mi
10:54 AM78 °FSunny.9 mph48%30.12 "Hg10 mi
9:54 AM77 °FSunny.10 mph54%30.13 "Hg10 mi
8:54 AM74 °FSunny.9 mph62%30.12 "Hg10 mi
7:54 AM71 °FSunny.5 mph68%30.12 "Hg10 mi
6:54 AM68 °FClear.5 mph76%30.11 "Hg10 mi
5:54 AM68 °FClear.7 mph76%30.11 "Hg10 mi
4:54 AM68 °FClear.5 mph78%30.10 "Hg10 mi
3:54 AM69 °FClear.5 mph76%30.09 "Hg10 mi
2:54 AM71 °FClear.8 mph71%30.09 "Hg10 mi
1:54 AM72 °FClear.7 mph71%30.10 "Hg10 mi
Weather by CustomWeather, © 2014

See weather overviewHow to use our weather pages